[[{"header":{"parameterUnit":"m.s-1","parameterCategory":1,"la1":30.2992,"la2":30.254,"lo1":-89.0895,"lo2":-89.0443,"dy":0.0025,"dx":0.0025,"nx":19,"ny":19,"refTime":"2026-05-03T09:00:00:Z","depth":0,"parameterNumber":2,"parameterNumberName":"U-component_of_WINDS"},"data":[0,0,0,-1.8254,-1.8256,-1.8308,-1.8309,-1.8383,-1.8383,0,0,0,0,0,0,0,0,0,0,0,-1.8241,-1.8242,-1.8254,-1.8256,-1.8308,-1.8309,-1.8383,-1.8383,0,0,0,0,0,0,0,0,0,0,0,-1.8241,-1.8242,-1.8243,-1.8256,-1.8308,-1.8309,-1.8382,-1.8341,0,0,0,0,0,0,0,0,0,0,-1.8288,-1.8278,-1.8242,-1.8243,-1.8256,-1.8308,-1.8309,-1.8338,-1.8343,-1.8361,0,-1.8377,0,-1.8382,-1.8389,-1.8389,0,0,0,-1.8254,-1.8274,-1.8286,-1.8243,-1.8257,-1.8308,-1.8284,-1.8341,-1.8346,-1.8368,-1.8378,-1.8381,-1.8383,-1.8389,-1.839,-1.8501,-1.8501,0,0,-1.8251,-1.8252,-1.8283,-1.829,-1.8281,-1.8282,-1.8286,-1.8344,-1.8356,-1.8378,-1.8382,-1.8384,-1.839,-1.839,-1.85,-1.8501,0,0,0,-1.8244,-1.825,-1.8261,-1.8287,-1.8296,-1.8284,-1.8288,-1.8353,-1.8357,-1.8383,-1.8385,-1.839,-1.8391,-1.8499,-1.85,-1.8531,0,0,0,-1.8242,-1.8246,-1.826,-1.8261,-1.8295,-1.8325,-1.8296,-1.8353,-1.8359,-1.8385,-1.839,-1.8392,-1.8499,-1.85,-1.8529,-1.8545,0,0,0,-1.8237,-1.8246,-1.8254,-1.8261,-1.8284,-1.8324,-1.8331,-1.8354,-1.836,-1.8389,-1.8392,-1.8498,-1.85,-1.8527,-1.8542,-1.8575,0,0,0,-1.8232,-1.828,-1.8255,-1.831,-1.8283,-1.8343,-1.833,-1.8375,-1.8403,-1.8391,-1.8499,-1.85,-1.8526,-1.854,-1.8573,-1.8603,-1.8616,0,0,-1.8294,-1.8288,-1.832,-1.8299,-1.8363,-1.8335,-1.8405,-1.8429,-1.8431,-1.8478,-1.848,-1.853,-1.8542,-1.8575,-1.8688,-1.8699,0,0,0,-1.834,-1.8363,-1.838,-1.8407,-1.8428,-1.8448,-1.8462,-1.8472,-1.8511,-1.8455,-1.8551,-1.8558,-1.8578,-1.8592,-1.8601,-1.8618,-1.8507,-1.8507,-1.8507,-1.8427,-1.8428,-1.8482,-1.849,-1.8517,-1.8533,-1.8556,-1.8572,-1.8563,-1.8587,-1.8599,-1.8668,-1.8685,-1.8691,-1.8709,-1.8616,-1.8616,-1.8617,-1.8617,-1.8517,-1.855,-1.8541,-1.8589,-1.8591,-1.8633,-1.8651,-1.8645,-1.8685,-1.8658,-1.8675,-1.8644,-1.8703,-1.8718,-1.8619,-1.8619,-1.8618,-1.8618,-1.8618,-1.8573,-1.8589,-1.8601,-1.8643,-1.8676,-1.8683,-1.8723,-1.8723,-1.8723,-1.874,-1.8755,-1.8755,-1.8754,-1.8748,-1.8748,-1.8748,-1.8749,-1.8749,-1.8749,-1.8626,-1.8639,-1.8671,-1.87,-1.8719,-1.8745,-1.8765,-1.8784,-1.8806,-1.8803,-1.8803,-1.8793,-1.8708,-1.8687,-1.8753,-1.8752,-1.8751,-1.8751,-1.8751,-1.8714,-1.8695,-1.8745,-1.8765,-1.8801,-1.8835,-1.8836,-1.8876,-1.8892,-1.8913,-1.8901,-1.8838,-1.8832,-1.8825,-1.8807,-1.89,-1.89,-1.89,-1.89,-1.8761,-1.8759,-1.8812,-1.8844,-1.8875,-1.8882,-1.8942,-1.8959,-1.8974,-1.8985,-1.8972,-1.8949,-1.8942,-1.894,-1.8931,-1.8914,-1.9032,-1.9032,-1.9032,-1.8816,-1.8817,-1.8866,-1.8881,-1.891,-1.8935,-1.8992,-1.9031,-1.9044,-1.9037,-1.8994,-1.8988,-1.8951,-1.8938,-1.8928,-1.8914,-1.8883,0,0]},{"header":{"parameterUnit":"m.s-1","parameterCategory":1,"la1":30.2992,"la2":30.254,"lo1":-89.0895,"lo2":-89.0443,"dy":0.0025,"dx":0.0025,"nx":19,"ny":19,"refTime":"2026-05-03T09:00:00:Z","depth":0,"parameterNumber":3,"parameterNumberName":"V-component_of_WINDS"},"data":[0,0,0,2.8884,2.8884,2.8875,2.8875,2.8848,2.8848,0,0,0,0,0,0,0,0,0,0,0,2.8879,2.8879,2.8885,2.8884,2.8875,2.8875,2.8848,2.8848,0,0,0,0,0,0,0,0,0,0,0,2.8879,2.8879,2.8878,2.8884,2.8875,2.8875,2.8848,2.886,0,0,0,0,0,0,0,0,0,0,2.8871,2.8859,2.8879,2.8878,2.8884,2.8875,2.8875,2.8861,2.8859,2.8846,0,2.8833,0,2.884,2.8845,2.8845,0,0,0,2.889,2.886,2.8865,2.8878,2.8884,2.8875,2.8881,2.886,2.8858,2.8844,2.8833,2.8832,2.884,2.8845,2.8845,2.8751,2.875,0,0,2.889,2.8873,2.8866,2.8864,2.8866,2.8881,2.8881,2.8859,2.8846,2.8833,2.8832,2.8839,2.8845,2.8844,2.8752,2.8751,0,0,0,2.8888,2.8873,2.8879,2.8864,2.8864,2.8881,2.888,2.8847,2.885,2.8832,2.8839,2.8844,2.8844,2.8753,2.8751,2.87,0,0,0,2.8888,2.8871,2.8879,2.8868,2.8864,2.8856,2.8867,2.8852,2.885,2.8839,2.8844,2.8843,2.8753,2.8752,2.8703,2.8677,0,0,0,2.8882,2.8871,2.8867,2.8867,2.8863,2.8856,2.8859,2.8852,2.8854,2.8845,2.8843,2.8754,2.8752,2.8706,2.8682,2.8646,0,0,0,2.887,2.8821,2.8866,2.8813,2.8863,2.8826,2.8859,2.8832,2.8818,2.8844,2.8753,2.8752,2.8706,2.8685,2.8649,2.8612,2.8595,0,0,2.8798,2.8811,2.8782,2.8822,2.8772,2.8828,2.877,2.8774,2.8788,2.8762,2.876,2.8702,2.8682,2.8647,2.8513,2.8499,0,0,0,2.8753,2.8731,2.8722,2.8709,2.8711,2.871,2.8725,2.8726,2.8705,2.8772,2.8681,2.867,2.865,2.8633,2.8621,2.8604,2.8744,2.8744,2.8744,2.8623,2.8646,2.8598,2.8619,2.8606,2.8622,2.8613,2.8617,2.8643,2.8621,2.8612,2.8529,2.8508,2.85,2.8482,2.8597,2.8597,2.8596,2.8596,2.8517,2.8489,2.8526,2.8493,2.8517,2.8489,2.8502,2.8521,2.8497,2.8537,2.852,2.8559,2.8484,2.847,2.8593,2.8593,2.8594,2.8594,2.8594,2.8432,2.8423,2.8427,2.841,2.8395,2.8419,2.8394,2.8417,2.8438,2.8422,2.8414,2.8415,2.8417,2.8417,2.8417,2.8417,2.8417,2.8416,2.8416,2.8342,2.8348,2.8326,2.8325,2.832,2.8315,2.8331,2.8326,2.8326,2.8344,2.8344,2.8371,2.8474,2.8498,2.8412,2.8412,2.8413,2.8413,2.8414,2.8222,2.8253,2.8218,2.8213,2.8214,2.8196,2.8227,2.8214,2.8213,2.8199,2.8231,2.8304,2.8319,2.8328,2.8348,2.8228,2.8228,2.8228,2.8228,2.8149,2.816,2.8129,2.8119,2.8112,2.8136,2.8093,2.8105,2.8122,2.8123,2.8144,2.8174,2.8182,2.8192,2.8204,2.8222,2.8073,2.8073,2.8072,2.8075,2.8087,2.8047,2.8066,2.8068,2.8069,2.803,2.8015,2.8041,2.8067,2.8123,2.813,2.8177,2.8192,2.8216,2.8234,2.8269,0,0]}]]